Date String (YYYY-MM-DD hh:mm:ss) UTC,Instrument flags,absolute air pressure of the measurement (hPa),sample flow rate (lpm),inlet stack bypass flow (lpm),air temperature of the measurement (°C),ambient temperature measured by the external sensor (°C),aerosol sample conditioner tube jacket temperature (°C),OPC LED temperature (°C),internal box temperature (°C),relative humidity of the measurement (%),span deviation,mass concentration of particles derived from Lorenz-Mie calculation of OPC scattering (μg/m³),mass concentration of particles derived from Lorenz-Mie calculation of OPC scattering (μg/m³),mass concentration of particles derived from Lorenz-Mie calculation of OPC scattering (μg/m³)
DateTimeUTC,F1_M11,P_M11,Q1_M11,Q2_M11,T1_M11,T2_M11,T3_M11,T4_M11,T5_M11,U1_M11,ZSPAN_M11,X0_M11,X2_M11,X1_M11
2024-05-13 18:00:00,SystemResetWarning,0827.4,5.00,000.00,024.2,022.8,000.0,032.6,025.8,028.1,0000.0,0011.63,0003.97,0003.27
2024-05-13 18:01:00,SystemResetWarning,0827.4,5.01,000.00,024.2,023.1,000.0,032.5,026.0,028.5,0000.0,0011.76,0004.00,0003.28
2024-05-13 18:02:00,SystemResetWarning,0827.4,4.99,000.00,024.3,023.4,000.0,032.5,026.1,027.9,0000.0,0011.61,0004.00,0003.29
2024-05-13 18:03:00,SystemResetWarning,0827.4,4.99,000.00,024.4,023.6,000.0,032.5,026.2,026.8,0000.0,0011.40,0004.00,0003.29
2024-05-13 18:04:00,SystemResetWarning,0827.4,5.00,000.00,024.4,023.7,000.0,032.5,026.3,025.0,0000.0,0010.95,0003.97,0003.27
2024-05-13 18:05:00,SystemResetWarning,0827.4,5.01,000.00,024.5,023.9,000.0,032.6,026.4,025.3,0000.0,0010.84,0003.94,0003.25
2024-05-13 18:06:00,SystemResetWarning,0827.4,5.00,000.00,024.6,024.1,000.0,032.6,026.5,025.2,0000.0,0010.77,0003.91,0003.25
2024-05-13 18:07:00,SystemResetWarning,0827.4,5.00,000.00,024.7,024.2,000.0,032.6,026.6,024.8,0000.0,0010.20,0003.89,0003.24
2024-05-13 18:08:00,SystemResetWarning,0827.4,5.00,000.00,024.7,024.3,000.0,032.7,026.6,023.6,0000.0,0009.36,0003.87,0003.23
2024-05-13 18:09:00,SystemResetWarning,0827.4,4.98,000.00,024.6,023.1,000.0,032.8,026.0,024.3,0000.0,0009.23,0003.83,0003.22
2024-05-13 18:10:00,SystemResetWarning,0827.3,5.00,000.00,024.2,021.3,000.0,032.8,025.0,024.4,0000.0,0008.49,0003.80,0003.21
2024-05-13 18:11:00,SystemResetWarning,0827.3,5.02,000.00,024.0,021.4,000.0,032.8,025.0,024.2,0000.0,0007.28,0003.79,0003.22
2024-05-13 18:12:00,SystemResetWarning,0827.3,5.00,000.00,024.0,021.8,000.0,032.7,025.1,026.0,0000.0,0006.92,0003.74,0003.22
2024-05-13 18:13:00,SystemResetWarning,0827.3,4.99,000.00,024.0,022.2,000.0,032.5,025.4,025.3,0000.0,0007.49,0003.73,0003.23
2024-05-13 18:14:00,SystemResetWarning,0827.3,5.00,000.00,024.0,022.6,000.0,032.5,025.6,024.6,0000.0,0007.69,0003.71,0003.24
2024-05-13 18:15:00,SystemResetWarning,0827.3,5.01,000.00,024.1,022.9,000.0,032.4,025.8,024.7,0000.0,0007.71,0003.74,0003.25
2024-05-13 18:16:00,SystemResetWarning,0827.3,5.00,000.00,024.2,023.2,000.0,032.4,026.0,025.9,0000.0,0007.57,0003.78,0003.28
2024-05-13 18:17:00,SystemResetWarning,0827.3,4.99,000.00,024.3,023.4,000.0,032.4,026.1,025.2,0000.0,0007.65,0003.78,0003.29
2024-05-13 18:18:00,SystemResetWarning,0827.4,5.00,000.00,024.3,023.6,000.0,032.4,026.2,025.9,0000.0,0007.92,0003.83,0003.30
2024-05-13 18:19:00,SystemResetWarning,0827.3,5.01,000.00,024.4,023.8,000.0,032.5,026.3,024.9,0000.0,0007.97,0003.84,0003.30
2024-05-13 18:20:00,SystemResetWarning,0827.3,5.02,000.00,024.5,024.0,000.0,032.5,026.4,024.6,0000.0,0008.09,0003.87,0003.31
2024-05-13 18:21:00,SystemResetWarning,0827.3,4.99,000.00,024.6,024.1,000.0,032.5,026.5,025.0,0000.0,0008.58,0003.87,0003.32
2024-05-13 18:22:00,SystemResetWarning,0827.3,4.99,000.00,024.7,024.2,000.0,032.6,026.6,024.5,0000.0,0009.09,0003.86,0003.33
2024-05-13 18:23:00,SystemResetWarning,0827.3,5.00,000.00,024.7,024.3,000.0,032.6,026.7,024.2,0000.0,0009.27,0003.88,0003.32
2024-05-13 18:24:00,SystemResetWarning,0827.3,5.00,000.00,024.8,024.0,000.0,032.7,026.5,024.1,0000.0,0009.11,0003.90,0003.33
2024-05-13 18:25:00,SystemResetWarning,0827.2,5.00,000.00,024.5,022.1,000.0,032.8,025.4,024.8,0000.0,0008.67,0003.91,0003.33
2024-05-13 18:26:00,SystemResetWarning,0827.2,5.00,000.00,024.1,021.3,000.0,032.8,024.9,025.0,0000.0,0008.78,0003.93,0003.34
2024-05-13 18:27:00,SystemResetWarning,0827.2,5.01,000.00,024.0,021.7,000.0,032.7,025.1,025.6,0000.0,0008.96,0003.93,0003.34
2024-05-13 18:28:00,SystemResetWarning,0827.2,4.99,000.00,024.0,022.1,000.0,032.6,025.3,025.3,0000.0,0009.64,0003.96,0003.34
2024-05-13 18:29:00,SystemResetWarning,0827.2,5.00,000.00,024.1,022.4,000.0,032.5,025.6,025.1,0000.0,0009.92,0003.92,0003.36
2024-05-13 18:30:00,SystemResetWarning,0827.2,5.00,000.00,024.1,022.8,000.0,032.5,025.7,025.8,0000.0,0010.67,0003.93,0003.37
2024-05-13 18:31:00,SystemResetWarning,0827.2,5.01,000.00,024.2,023.1,000.0,032.4,025.9,025.3,0000.0,0010.66,0003.95,0003.38
2024-05-13 18:32:00,SystemResetWarning,0827.2,5.00,000.00,024.3,023.3,000.0,032.4,026.1,025.5,0000.0,0010.24,0003.98,0003.39
2024-05-13 18:33:00,SystemResetWarning,0827.2,4.99,000.00,024.4,023.6,000.0,032.4,026.2,025.4,0000.0,0009.64,0004.00,0003.39
2024-05-13 18:34:00,SystemResetWarning,0827.2,4.99,000.00,024.4,023.8,000.0,032.5,026.3,025.1,0000.0,0010.26,0004.00,0003.41
2024-05-13 18:35:00,SystemResetWarning,0827.1,5.00,000.00,024.5,023.9,000.0,032.5,026.4,025.7,0000.0,0010.28,0004.02,0003.42
2024-05-13 18:36:00,SystemResetWarning,0827.2,5.01,000.00,024.6,024.1,000.0,032.5,026.5,025.2,0000.0,0010.30,0004.03,0003.43
2024-05-13 18:37:00,SystemResetWarning,0827.2,5.01,000.00,024.7,024.2,000.0,032.6,026.6,025.0,0000.0,0010.15,0004.03,0003.45
2024-05-13 18:38:00,SystemResetWarning,0827.2,4.99,000.00,024.7,024.3,000.0,032.6,026.7,024.8,0000.0,0010.47,0004.05,0003.46
2024-05-13 18:39:00,SystemResetWarning,0827.1,4.99,000.00,024.8,023.8,000.0,032.7,026.4,024.9,0000.0,0010.13,0004.06,0003.47
2024-05-13 18:40:00,SystemResetWarning,0827.2,5.00,000.00,024.5,022.0,000.0,032.8,025.4,024.9,0000.0,0009.59,0004.10,0003.49
2024-05-13 18:41:00,SystemResetWarning,0827.1,5.01,000.00,024.1,021.3,000.0,032.8,025.0,025.5,0000.0,0009.15,0004.11,0003.49
2024-05-13 18:42:00,SystemResetWarning,0827.1,5.01,000.00,024.1,021.8,000.0,032.7,025.1,026.1,0000.0,0009.41,0004.12,0003.50
2024-05-13 18:43:00,SystemResetWarning,0827.1,5.00,000.00,024.1,022.2,000.0,032.6,025.4,025.7,0000.0,0009.40,0004.12,0003.52
2024-05-13 18:44:00,SystemResetWarning,0827.1,5.00,000.00,024.1,022.5,000.0,032.5,025.6,026.1,0000.0,0009.27,0004.09,0003.52
2024-05-13 18:45:00,SystemResetWarning,0827.2,4.99,000.00,024.2,022.9,000.0,032.5,025.8,026.7,0000.0,0009.09,0004.09,0003.53
2024-05-13 18:46:00,SystemResetWarning,0827.1,5.00,000.00,024.2,023.2,000.0,032.4,026.0,026.6,0000.0,0009.38,0004.11,0003.53
2024-05-13 18:47:00,SystemResetWarning,0827.1,5.00,000.00,024.3,023.4,000.0,032.4,026.1,026.1,0000.0,0009.47,0004.12,0003.53
2024-05-13 18:48:00,SystemResetWarning,0827.1,5.00,000.00,024.4,023.6,000.0,032.5,026.3,025.6,0000.0,0009.64,0004.13,0003.54
2024-05-13 18:49:00,SystemResetWarning,0827.1,4.99,000.00,024.5,023.8,000.0,032.5,026.4,024.7,0000.0,0009.62,0004.13,0003.55
2024-05-13 18:50:00,SystemResetWarning,0827.0,5.00,000.00,024.5,024.0,000.0,032.5,026.5,024.4,0000.0,0009.34,0004.16,0003.57
2024-05-13 18:51:00,SystemResetWarning,0827.1,5.00,000.00,024.6,024.1,000.0,032.5,026.6,024.1,0000.0,0009.37,0004.16,0003.57
2024-05-13 18:52:00,SystemResetWarning,0827.1,4.99,000.00,024.7,024.1,000.0,032.6,026.5,024.1,0000.0,0009.48,0004.14,0003.57
2024-05-13 18:53:00,SystemResetWarning,0827.0,4.99,000.00,024.5,022.4,000.0,032.7,025.5,024.1,0000.0,0009.18,0004.15,0003.57
2024-05-13 18:54:00,SystemResetWarning,0827.0,5.01,000.00,024.1,021.0,000.0,032.7,024.8,025.0,0000.0,0009.60,0004.14,0003.57
2024-05-13 18:55:00,SystemResetWarning,0827.0,5.02,000.00,023.9,021.3,000.0,032.7,024.9,025.2,0000.0,0009.99,0004.17,0003.59
2024-05-13 18:56:00,SystemResetWarning,0827.1,5.00,000.00,023.9,021.8,000.0,032.5,025.1,025.3,0000.0,0009.71,0004.20,0003.60
2024-05-13 18:57:00,SystemResetWarning,0827.1,5.00,000.00,023.9,022.2,000.0,032.4,025.4,024.8,0000.0,0010.83,0004.17,0003.61
2024-05-13 18:58:00,SystemResetWarning,0827.1,5.00,000.00,024.0,022.6,000.0,032.4,025.6,025.1,0000.0,0012.13,0004.16,0003.61
2024-05-13 18:59:00,SystemResetWarning,0827.1,5.00,000.00,024.1,022.9,000.0,032.3,025.8,025.2,0000.0,0012.41,0004.19,0003.60
